KF4UQS-15 Nokesville VA US current weather conditions

sailwx.info

Wind from 328

Air temperature 18.3° C
Dewpoint 9.4° C

Last reported at 2019-Aug-24 00:02 UTC.
Time now 2019-Aug-24 00:20 UTC

Location: N 38°38' W 077°29'.
View on Google Maps.

See reports from other nearby stations

  
Tides and Currents Weather Stations Pressure Air Temp Water Temp Dewpoint Dewpoint Depression Visibility Wind Speed Wind Dir Waves Ship Positions
date/time (UTC)wind fromknots sea level pressurealtimeterstation pressurevisibilityair tempwater tempwave heightnotes
2019-Aug-24 00:02 328 18.3
2019-Aug-23 23:46 328 18.3
2019-Aug-23 23:30 328 18.3
2019-Aug-23 23:16 327 18.3
2019-Aug-23 22:45 344 18.9
2019-Aug-23 22:30 005 18.9
2019-Aug-23 22:16 304 18.9
2019-Aug-23 21:46 319 18.9
2019-Aug-23 21:33 005 18.9
2019-Aug-23 21:15 289 18.9
2019-Aug-23 21:01 288 18.9
2019-Aug-23 20:46 286 18.9
2019-Aug-23 20:30 293 18.3
2019-Aug-23 20:16 293 18.3
2019-Aug-23 19:45 293 18.3
2019-Aug-23 19:31 290 18.3
2019-Aug-23 19:16 290 18.3
2019-Aug-23 18:46 346 18.3
2019-Aug-23 18:31 318 18.3
2019-Aug-23 18:15 290 18.3
2019-Aug-23 18:01 283 18.3
2019-Aug-23 17:46 273 0 gusting 4 18.3
2019-Aug-23 17:30 283 18.3
2019-Aug-23 17:16 337 18.3
2019-Aug-23 17:02 313 18.9
2019-Aug-23 16:46 270 19.4
2019-Aug-23 16:30 024 19.4
2019-Aug-23 16:16 024 19.4
2019-Aug-23 15:45 329 0 gusting 6 20.6
2019-Aug-23 15:30 315 0 gusting 3 21.7
2019-Aug-23 15:16 298 21.7
2019-Aug-23 15:15 298 21.7
2019-Aug-23 14:45 302 22.2
2019-Aug-23 14:31 295 22.8
2019-Aug-23 14:15 313 22.8
2019-Aug-23 14:00 309 22.8
2019-Aug-23 13:46 332 22.2
2019-Aug-23 13:30 327 22.2
2019-Aug-23 13:15 327 22.2
2019-Aug-23 13:01 030 22.2
2019-Aug-23 12:46 030 22.2
2019-Aug-23 12:30 030 22.2
2019-Aug-23 12:17 304 22.2
2019-Aug-23 11:45 304 21.7
2019-Aug-23 11:31 304 21.7
2019-Aug-23 11:16 304 21.7
2019-Aug-23 10:45 304 21.7
2019-Aug-23 10:31 304 21.7
2019-Aug-23 10:16 304 21.7
2019-Aug-23 09:45 304 21.7
2019-Aug-23 09:32 304 21.7
2019-Aug-23 09:15 304 21.7
2019-Aug-23 09:01 304 22.2
2019-Aug-23 08:47 304 22.2
2019-Aug-23 08:30 311 22.2
2019-Aug-23 08:17 336 22.2
2019-Aug-23 07:46 337 22.2
2019-Aug-23 07:30 337 22.2
2019-Aug-23 07:16 337 22.2
2019-Aug-23 06:46 337 22.2
2019-Aug-23 06:31 337 22.2
2019-Aug-23 06:15 337 22.2
2019-Aug-23 06:00 337 22.2
2019-Aug-23 05:46 337 22.8
2019-Aug-23 05:31 337 22.8
2019-Aug-23 05:30 337 22.8
2019-Aug-23 05:15 337 22.8
2019-Aug-23 05:03 337 22.8
2019-Aug-23 04:46 337 23.3
2019-Aug-23 04:30 337 23.3
2019-Aug-23 04:16 337 23.9
2019-Aug-23 04:00 337 23.9
2019-Aug-23 03:46 337 23.9
2019-Aug-23 03:30 337 23.9
2019-Aug-23 03:15 337 23.9
2019-Aug-23 03:01 335 24.4
2019-Aug-23 02:46 335 24.4
2019-Aug-23 02:45 335 24.4
2019-Aug-23 02:30 335 24.4
2019-Aug-23 02:16 335 25.0
2019-Aug-23 01:45 335 25.6
2019-Aug-23 01:31 335 25.6
2019-Aug-23 01:16 289 26.1
2019-Aug-23 01:00 334 26.1
2019-Aug-23 00:46 286 1 gusting 3 26.7
2019-Aug-23 00:31 296 26.7
2019-Aug-23 00:15 273 27.2
2019-Aug-23 00:00 313 27.8
2019-Aug-22 23:46 311 27.8
2019-Aug-22 23:30 013 27.8
2019-Aug-22 23:15 013 28.3
2019-Aug-22 22:31 108 28.3
2019-Aug-22 22:17 104 28.9
2019-Aug-22 21:45 104 29.4
2019-Aug-22 21:31 083 30.0
2019-Aug-22 21:15 080 30.6
2019-Aug-22 21:00 069 30.6
2019-Aug-22 20:46 103 31.1
2019-Aug-22 20:30 138 31.1
2019-Aug-22 20:16 117 31.1
2019-Aug-22 19:45 304 31.7
2019-Aug-22 19:31 310 31.7
2019-Aug-22 19:16 080 31.7
2019-Aug-22 18:46 307 0 gusting 3 31.7
2019-Aug-22 18:31 288 0 gusting 3 31.7
2019-Aug-22 18:15 296 1 gusting 2 31.7
2019-Aug-22 18:01 288 0 gusting 3 32.2
2019-Aug-22 17:46 284 32.2
2019-Aug-22 17:30 309 0 gusting 3 32.2
2019-Aug-22 17:16 269 0 gusting 4 32.2
2019-Aug-22 16:45 286 32.2
2019-Aug-22 16:30 309 32.2
2019-Aug-22 16:15 205 32.2
2019-Aug-22 16:01 287 32.2
2019-Aug-22 15:46 243 31.7
2019-Aug-22 15:32 271 31.7
2019-Aug-22 15:30 295 31.7
2019-Aug-22 15:16 304 31.1
2019-Aug-22 15:01 290 31.1
2019-Aug-22 14:46 291 1 gusting 3 30.6
2019-Aug-22 14:30 298 29.4
2019-Aug-22 14:16 304 28.3
2019-Aug-22 13:47 336 24.4
2019-Aug-22 13:31 005 23.9
2019-Aug-22 13:18 005 23.3
2019-Aug-22 12:45 098 22.2
2019-Aug-22 12:30 098 22.2
2019-Aug-22 12:15 098 22.2
2019-Aug-22 12:00 098 22.2
2019-Aug-22 11:45 098 21.7
2019-Aug-22 11:32 108 21.7
2019-Aug-22 11:15 108 21.7
2019-Aug-22 11:00 108 21.7
2019-Aug-22 10:46 108 21.7
2019-Aug-22 10:30 108 21.7
2019-Aug-22 10:16 108 21.7
2019-Aug-22 10:01 108 21.7
2019-Aug-22 09:46 108 21.7
2019-Aug-22 09:31 108 22.2
2019-Aug-22 09:16 108 22.2
2019-Aug-22 08:45 108 22.2
2019-Aug-22 08:31 108 22.2
2019-Aug-22 08:15 108 22.2
2019-Aug-22 08:00 108 22.8
2019-Aug-22 07:45 108 22.8
2019-Aug-22 07:31 108 22.8
2019-Aug-22 07:15 108 22.8
2019-Aug-22 07:00 108 22.8
2019-Aug-22 06:45 108 23.3
2019-Aug-22 06:30 108 23.3
2019-Aug-22 06:15 108 23.3
2019-Aug-22 06:01 108 23.3
2019-Aug-22 05:46 108 23.3
2019-Aug-22 05:30 108 23.3
2019-Aug-22 05:17 108 23.3
2019-Aug-22 04:45 108 23.3
2019-Aug-22 04:32 108 23.3
2019-Aug-22 04:15 108 23.3
2019-Aug-22 03:45 101 23.3
2019-Aug-22 03:31 100 23.3
2019-Aug-22 03:15 094 23.3
2019-Aug-22 03:00 028 23.3
2019-Aug-22 02:46 028 23.9
2019-Aug-22 02:32 028 23.9
2019-Aug-22 02:30 028 23.9
2019-Aug-22 02:16 028 24.4
2019-Aug-22 02:01 028 24.4
2019-Aug-22 01:47 029 24.4
2019-Aug-22 01:31 029 25.0
2019-Aug-22 01:16 029 25.0
2019-Aug-22 00:45 029 25.6
2019-Aug-22 00:30 029 26.1
2019-Aug-22 00:15 029 26.7
2019-Aug-22 00:00 029 26.7